| time (UTC) | temp F | wind direction | speed MPH | gust MPH | rain 1hr in | rain 24hr in | rain mn in | humidity % | barometer mb |
| 20260504024035 | 58 | 205 | 4.0 | 9.0 | 0.00 | 0.00 | 0.00 | 82 | |
| 20260504023033 | 58 | 194 | 6.0 | 11.0 | 0.00 | 0.00 | 0.00 | 82 | |
| 20260504021534 | 58 | 164 | 5.0 | 10.0 | 0.00 | 0.00 | 0.00 | 82 | |
| 20260504021034 | 59 | 142 | 5.0 | 7.0 | 0.00 | 0.00 | 0.00 | 82 | |
| 20260504020534 | 59 | 198 | 1.0 | 9.0 | 0.00 | 0.00 | 0.00 | 81 | |
| 20260504015534 | 59 | 203 | 3.0 | 10.0 | 0.00 | 0.00 | 0.00 | 80 | |
| 20260504015034 | 59 | 230 | 1.0 | 8.0 | 0.00 | 0.00 | 0.00 | 80 | |
| 20260504014534 | 59 | 156 | 4.0 | 6.0 | 0.00 | 0.00 | 0.00 | 80 | |
| 20260504014034 | 59 | 160 | 0.0 | 8.0 | 0.00 | 0.00 | 0.00 | 79 | |
| 20260504013534 | 59 | 188 | 5.0 | 8.0 | 0.00 | 0.00 | 0.00 | 79 | |
| 20260504013033 | 59 | 213 | 1.0 | 11.0 | 0.00 | 0.00 | 0.00 | 79 | |
| 20260504012534 | 59 | 215 | 1.0 | 6.0 | 0.00 | 0.00 | 0.00 | 79 | |
| 20260504011534 | 59 | 222 | 1.0 | 8.0 | 0.00 | 0.00 | 0.00 | 79 | |
| 20260504011034 | 60 | 195 | 2.0 | 8.0 | 0.00 | 0.00 | 0.00 | 79 | |
| 20260504010534 | 60 | 210 | 2.0 | 9.0 | 0.00 | 0.00 | 0.00 | 79 | |
| 20260504010034 | 60 | 184 | 4.0 | 8.0 | 0.00 | 0.00 | 0.00 | 79 | |
| 20260504005534 | 60 | 181 | 1.0 | 7.0 | 0.00 | 0.00 | 0.00 | 79 | |
| 20260504005034 | 60 | 196 | 5.0 | 12.0 | 0.00 | 0.00 | 0.00 | 79 | |
| 20260504004534 | 60 | 172 | 0.0 | 13.0 | 0.00 | 0.00 | 0.00 | 78 | |
| 20260504004034 | 60 | 191 | 1.0 | 13.0 | 0.00 | 0.00 | 0.00 | 79 | |
| 20260504003033 | 60 | 4 | 0.0 | 15.0 | 0.00 | 0.00 | 0.00 | 80 | |
| 20260504002534 | 60 | 140 | 4.0 | 9.0 | 0.00 | 0.00 | 0.00 | 80 | |
| 20260504002034 | 61 | 185 | 2.0 | 9.0 | 0.00 | 0.00 | 0.00 | 80 | |
| 20260504001534 | 61 | 184 | 5.0 | 11.0 | 0.00 | 0.00 | 0.00 | 79 | |
| 20260504001034 | 61 | 63 | 0.0 | 14.0 | 0.00 | 0.00 | 0.00 | 78 | |
| 20260504000534 | 61 | 209 | 0.0 | 10.0 | 0.00 | 0.00 | 0.00 | 78 | |
| 20260504000034 | 61 | 215 | 0.0 | 11.0 | 0.00 | 0.00 | 0.00 | 77 | |
| 20260503235534 | 61 | 181 | 0.0 | 12.0 | 0.00 | 0.00 | 0.00 | 77 | |
| 20260503235034 | 61 | 196 | 3.0 | 11.0 | 0.00 | 0.00 | 0.00 | 77 | |
| 20260503234534 | 61 | 187 | 4.0 | 9.0 | 0.00 | 0.00 | 0.00 | 77 | |
| 20260503234034 | 61 | 188 | 5.0 | 8.0 | 0.00 | 0.00 | 0.00 | 76 | |
| 20260503233534 | 61 | 192 | 2.0 | 7.0 | 0.00 | 0.00 | 0.00 | 76 | |
| 20260503233033 | 61 | 219 | 6.0 | 8.0 | 0.00 | 0.00 | 0.00 | 76 | |
| 20260503230535 | 62 | 222 | 5.0 | 8.0 | 0.00 | 0.00 | 0.00 | 75 | |
| 20260503230035 | 62 | 202 | 2.0 | 9.0 | 0.00 | 0.00 | 0.00 | 74 | |
| 20260503225535 | 62 | 220 | 3.0 | 10.0 | 0.00 | 0.00 | 0.00 | 74 | |
| 20260503224535 | 62 | 195 | 0.0 | 8.0 | 0.00 | 0.00 | 0.00 | 75 | |
| 20260503223535 | 62 | 156 | 4.0 | 12.0 | 0.00 | 0.00 | 0.00 | 74 | |
| 20260503223033 | 62 | 358 | 8.0 | 12.0 | 0.00 | 0.00 | 0.00 | 73 | |
| 20260503222535 | 62 | 126 | 2.0 | 13.0 | 0.00 | 0.00 | 0.00 | 73 | |
| 20260503221535 | 62 | 5 | 12.0 | 12.0 | 0.00 | 0.00 | 0.00 | 73 | |
| 20260503221035 | 62 | 248 | 1.0 | 11.0 | 0.00 | 0.00 | 0.00 | 72 | |
| 20260503215535 | 62 | 15 | 8.0 | 14.0 | 0.00 | 0.00 | 0.00 | 73 | |
| 20260503214035 | 62 | 160 | 4.0 | 18.0 | 0.00 | 0.00 | 0.00 | 72 | |
| 20260503213034 | 61 | 358 | 8.0 | 15.0 | 0.00 | 0.00 | 0.00 | 73 | |
| 20260503212035 | 61 | 18 | 13.0 | 14.0 | 0.00 | 0.00 | 0.00 | 73 | |
| 20260503211535 | 61 | 195 | 0.0 | 15.0 | 0.00 | 0.00 | 0.00 | 74 | |
| 20260503211035 | 61 | 88 | 13.0 | 15.0 | 0.00 | 0.00 | 0.00 | 73 | |
| 20260503210535 | 61 | 233 | 2.0 | 13.0 | 0.00 | 0.00 | 0.00 | 74 | |
| 20260503210035 | 61 | 43 | 7.0 | 12.0 | 0.00 | 0.00 | 0.00 | 73 | |
| 20260503205535 | 61 | 12 | 7.0 | 16.0 | 0.00 | 0.00 | 0.00 | 72 | |
| 20260503204535 | 61 | 226 | 4.0 | 12.0 | 0.00 | 0.00 | 0.00 | 75 | |
| 20260503204035 | 61 | 25 | 6.0 | 15.0 | 0.00 | 0.00 | 0.00 | 73 | |
| 20260503203535 | 61 | 205 | 5.0 | 15.0 | 0.00 | 0.00 | 0.00 | 73 | |
| 20260503203034 | 62 | 358 | 9.0 | 17.0 | 0.00 | 0.00 | 0.00 | 73 | |
| 20260503202535 | 62 | 42 | 6.0 | 18.0 | 0.00 | 0.00 | 0.00 | 71 | |
| 20260503202035 | 62 | 203 | 10.0 | 13.0 | 0.00 | 0.00 | 0.00 | 73 | |
| 20260503201535 | 62 | 189 | 1.0 | 10.0 | 0.00 | 0.00 | 0.00 | 73 | |
| 20260503201035 | 62 | 217 | 7.0 | 12.0 | 0.00 | 0.00 | 0.00 | 72 | |
| 20260503200535 | 62 | 258 | 6.0 | 15.0 | 0.00 | 0.00 | 0.00 | 71 | |
| 20260503200035 | 63 | 212 | 9.0 | 16.0 | 0.00 | 0.00 | 0.00 | 70 | |
| 20260503195035 | 64 | 26 | 14.0 | 22.0 | 0.00 | 0.00 | 0.00 | 69 | |
| 20260503194535 | 64 | 226 | 7.0 | 14.0 | 0.00 | 0.00 | 0.00 | 71 | |
| 20260503194035 | 63 | 358 | 12.0 | 14.0 | 0.00 | 0.00 | 0.00 | 71 | |
| 20260503193535 | 63 | 45 | 8.0 | 18.0 | 0.00 | 0.00 | 0.00 | 72 | |
| 20260503193034 | 63 | 345 | 16.0 | 19.0 | 0.00 | 0.00 | 0.00 | 71 | |
| 20260503192535 | 62 | 206 | 4.0 | 20.0 | 0.00 | 0.00 | 0.00 | 72 | |
| 20260503192035 | 63 | 11 | 12.0 | 24.0 | 0.00 | 0.00 | 0.00 | 68 | |
| 20260503191535 | 63 | 219 | 9.0 | 20.0 | 0.00 | 0.00 | 0.00 | 69 | |
| 20260503191035 | 63 | 60 | 16.0 | 22.0 | 0.00 | 0.00 | 0.00 | 72 | |
| 20260503190535 | 63 | 163 | 8.0 | 16.0 | 0.00 | 0.00 | 0.00 | 71 | |
| 20260503185535 | 62 | 156 | 4.0 | 17.0 | 0.00 | 0.00 | 0.00 | 72 | |
| 20260503184537 | 62 | 247 | 3.0 | 14.0 | 0.00 | 0.00 | 0.00 | 74 | |
| 20260503184035 | 62 | 11 | 10.0 | 18.0 | 0.00 | 0.00 | 0.00 | 72 | |
| 20260503183535 | 62 | 229 | 4.0 | 19.0 | 0.00 | 0.00 | 0.00 | 72 | |
| 20260503183034 | 62 | 74 | 15.0 | 20.0 | 0.00 | 0.00 | 0.00 | 71 | |
| 20260503181035 | 61 | 144 | 9.0 | 18.0 | 0.00 | 0.00 | 0.00 | 72 | |
| 20260503180535 | 61 | 14 | 10.0 | 21.0 | 0.00 | 0.00 | 0.00 | 71 | |
| 20260503180036 | 61 | 220 | 5.0 | 18.0 | 0.00 | 0.00 | 0.00 | 74 | |
| 20260503174536 | 60 | 78 | 9.0 | 19.0 | 0.00 | 0.00 | 0.00 | 72 | |
| 20260503174036 | 60 | 172 | 8.0 | 16.0 | 0.00 | 0.00 | 0.00 | 74 | |
| 20260503173536 | 60 | 227 | 7.0 | 19.0 | 0.00 | 0.00 | 0.00 | 73 | |
| 20260503173034 | 61 | 36 | 13.0 | 20.0 | 0.00 | 0.00 | 0.00 | 71 | |
| 20260503172536 | 61 | 232 | 5.0 | 22.0 | 0.00 | 0.00 | 0.00 | 71 | |
| 20260503172036 | 60 | 265 | 3.0 | 14.0 | 0.00 | 0.00 | 0.00 | 73 | |
| 20260503171036 | 60 | 355 | 12.0 | 18.0 | 0.00 | 0.00 | 0.00 | 70 | |
| 20260503170536 | 60 | 222 | 9.0 | 16.0 | 0.00 | 0.00 | 0.00 | 73 | |
| 20260503150536 | 56 | 358 | 0.0 | 17.0 | 0.00 | 0.00 | 0.00 | 73 | |
| 20260503130536 | 47 | 196 | 7.0 | 15.0 | 0.00 | 0.00 | 0.00 | 88 | |
| 20260503110537 | 39 | 229 | 2.0 | 7.0 | 0.00 | 0.00 | 0.00 | 100 | |
| 20260503081037 | 34 | 358 | 0.0 | 0.0 | 0.00 | 0.00 | 0.00 | 100 | |
| 20260503072537 | 34 | 358 | 0.0 | 0.0 | 0.00 | 0.00 | 0.00 | 100 | |
| 20260503072037 | 34 | 358 | 0.0 | 0.0 | 0.00 | 0.00 | 0.00 | 100 | |
| 20260503071537 | 34 | 358 | 0.0 | 0.0 | 0.00 | 0.00 | 0.00 | 100 | |
| 20260503071037 | 35 | 358 | 0.0 | 0.0 | 0.00 | 0.00 | 0.00 | 100 | |
| 20260503070537 | 35 | 358 | 0.0 | 0.0 | 0.00 | 0.00 | 0.00 | 100 | |
| 20260503055038 | 36 | 358 | 0.0 | 0.0 | 0.00 | 0.00 | 0.00 | 100 | |
| 20260503054038 | 36 | 358 | 0.0 | 0.0 | 0.00 | 0.00 | 0.00 | 100 | |
| 20260503053036 | 36 | 358 | 0.0 | 0.0 | 0.00 | 0.00 | 0.00 | 100 | |
| 20260503052038 | 36 | 358 | 0.0 | 0.0 | 0.00 | 0.00 | 0.00 | 100 | |
| 20260503051038 | 36 | 358 | 0.0 | 0.0 | 0.00 | 0.00 | 0.00 | 100 | |
| 20260503050538 | 36 | 358 | 0.0 | 0.0 | 0.00 | 0.00 | 0.00 | 100 | |
| 20260503050038 | 36 | 358 | 0.0 | 0.0 | 0.00 | 0.00 | 0.00 | 100 | |
| 20260503045538 | 36 | 358 | 0.0 | 0.0 | 0.00 | 0.00 | 0.00 | 100 | |
| 20260503045038 | 37 | 358 | 0.0 | 0.0 | 0.00 | 0.00 | 0.00 | 100 | |
| 20260503043538 | 37 | 358 | 0.0 | 0.0 | 0.00 | 0.00 | 0.00 | 100 | |
| 20260503043037 | 37 | 358 | 0.0 | 0.0 | 0.00 | 0.00 | 0.00 | 100 | |
| 20260503042538 | 37 | 358 | 0.0 | 0.0 | 0.00 | 0.00 | 0.00 | 100 | |
| 20260503042038 | 37 | 358 | 0.0 | 0.0 | 0.00 | 0.00 | 0.00 | 100 | |
| 20260503041038 | 38 | 358 | 0.0 | 0.0 | 0.00 | 0.00 | 0.00 | 100 | |
| 20260503035538 | 38 | 358 | 0.0 | 0.0 | 0.00 | 0.00 | 0.00 | 100 | |
| 20260503035038 | 38 | 358 | 0.0 | 0.0 | 0.00 | 0.00 | 0.00 | 100 | |
| 20260503034038 | 38 | 358 | 0.0 | 0.0 | 0.00 | 0.00 | 0.00 | 100 | |
| 20260503033037 | 39 | 358 | 0.0 | 0.0 | 0.00 | 0.00 | 0.00 | 100 | |
| 20260503032538 | 39 | 358 | 0.0 | 0.0 | 0.00 | 0.00 | 0.00 | 100 | |
| 20260503032038 | 39 | 358 | 0.0 | 0.0 | 0.00 | 0.00 | 0.00 | 100 | |
| 20260503031038 | 39 | 358 | 0.0 | 0.0 | 0.00 | 0.00 | 0.00 | 100 | |
| 20260503030538 | 39 | 358 | 0.0 | 0.0 | 0.00 | 0.00 | 0.00 | 100 | |
| 20260503025538 | 40 | 358 | 0.0 | 0.0 | 0.00 | 0.00 | 0.00 | 100 | |
| 20260503025038 | 40 | 358 | 0.0 | 0.0 | 0.00 | 0.00 | 0.00 | 100 | |
| 20260503024538 | 41 | 358 | 0.0 | 0.0 | 0.00 | 0.00 | 0.00 | 99 |